Location: Cold Norton
(51.6667°N, 0.6667°E)
Time: 17:36:24
(UTC+00:00)

Cosmos 1092 Rocket - Pass Details

Date: 18 November 2025
Orbit: 953 x 994 km, 82.9° (Epoch: 09 December)

Event Time Altitude Azimuth Distance (km) Brightness Sun altitude
Rises 18:06:48 0° 352° (N) 3,698 7.0 -18.8°
Reaches altitude 10° 18:09:26 10° 357° (N) 2,740 6.3 -19.2°
Maximum altitude 18:15:32 51° 73° (ENE) 1,207 4.1 -20.1°
Drops below altitude 10° 18:21:32 10° 149° (SSE) 2,695 6.1 -21.1°
Sets 18:24:05 0° 154° (SSE) 3,632 6.8 -21.5°
